Location: Peebles
(55.6412°N, 3.1714°W)
Time: 04:02:55
(UTC+00:00)

Cosmos 2369 Rocket - Visible Passes

Search period start: 25 January 2022 00:00
Search period end: 04 February 2022 00:00
Orbit: 827 x 854 km, 71.0° (Epoch: 24 January)

Date Brightness Start Highest point End Pass type
(mag) Time Alt. Az. Time Alt. Az. Time Alt. Az.
25 Jan 3.6 17:12:43 10° SE 17:16:32 19° E 17:20:22 10° ENE visible
25 Jan 2.1 18:54:04 10° SSW 18:59:44 81° ESE 19:03:03 26° NE visible
25 Jan 3.6 20:39:18 10° W 20:44:23 32° NW 20:44:53 32° NNW visible
25 Jan 5.1 22:26:23 10° NW 22:26:41 11° NW 22:26:41 11° NW visible
26 Jan 2.1 18:38:42 10° SSW 18:44:21 78° ESE 18:48:30 19° NE visible
26 Jan 3.6 20:23:51 10° W 20:28:57 33° NW 20:30:19 30° N visible
26 Jan 4.9 22:10:54 10° NW 22:12:08 14° NW 22:12:08 14° NW visible
27 Jan 2.1 18:23:19 10° SSW 18:28:58 75° ESE 18:33:52 14° NE visible
27 Jan 3.6 20:08:23 10° WSW 20:13:32 34° NW 20:15:41 26° N visible
27 Jan 4.7 21:55:25 10° NW 21:57:29 16° NW 21:57:29 16° NW visible
28 Jan 2.2 18:07:56 10° SSW 18:13:35 72° ESE 18:19:11 11° NE visible
28 Jan 3.5 19:52:55 10° WSW 19:58:06 35° NW 20:00:59 22° NNE visible
28 Jan 4.6 21:39:56 10° NW 21:42:47 18° NNW 21:42:47 18° NNW visible
29 Jan 2.2 17:52:35 10° SSW 17:58:12 69° ESE 18:03:53 10° NE visible
29 Jan 3.5 19:37:27 10° WSW 19:42:41 36° NW 19:46:13 19° NNE visible
29 Jan 4.4 21:24:27 10° WNW 21:28:02 19° NNW 21:28:02 19° NNW visible
30 Jan 2.3 17:37:13 10° SSW 17:42:49 66° ESE 17:48:29 10° NE visible
30 Jan 3.5 19:21:59 10° WSW 19:27:15 37° NW 19:31:25 16° NNE visible
30 Jan 4.3 21:08:58 10° WNW 21:12:57 19° NNW 21:13:14 19° N visible
31 Jan 2.3 17:21:51 10° SSW 17:27:26 63° ESE 17:33:05 10° NE visible
31 Jan 3.4 19:06:32 10° WSW 19:11:50 38° NW 19:16:35 13° NNE visible
31 Jan 4.3 20:53:28 10° WNW 20:57:30 19° NNW 20:58:23 19° N visible
31 Jan 5.1 22:39:44 10° NNW 22:40:11 11° NNW 22:40:11 11° NNW visible
01 Feb 3.4 18:51:05 10° WSW 18:56:25 40° NW 19:01:43 10° NNE visible
01 Feb 4.2 20:37:59 10° WNW 20:42:03 19° NNW 20:43:31 18° N visible
01 Feb 4.9 22:24:20 10° NNW 22:25:18 13° NNW 22:25:18 13° NNW visible
02 Feb 3.3 18:35:38 10° WSW 18:40:59 41° NW 18:46:24 10° NNE visible
02 Feb 4.2 20:22:29 10° WNW 20:26:35 20° NNW 20:28:37 17° N visible
02 Feb 4.8 22:08:54 10° NNW 22:10:24 15° NNW 22:10:24 15° NNW visible
03 Feb 3.3 18:20:10 10° WSW 18:25:34 42° NW 18:31:01 10° NNE visible
03 Feb 4.2 20:07:01 10° WNW 20:11:08 20° NNW 20:13:41 15° NNE visible
03 Feb 4.6 21:53:28 10° NNW 21:55:29 16° NNW 21:55:29 16° NNW visible
